| time (UTC) | temp C | wind direction | speed KPH | gust KPH | rain 1hr cm | rain 24hr cm | rain mn cm | humidity % | barometer mb |
| 20260509120214 | 10 | 190 | 6.4 | 22.5 | 0.00 | 0.05 | 0.00 | 97 | 1005.2 |
| 20260509103214 | 10 | 151 | 8.0 | 14.5 | 0.00 | 0.18 | 0.00 | 96 | 1005.4 |
| 20260509100214 | 9 | 191 | 6.4 | 14.5 | 0.00 | 0.18 | 0.00 | 95 | 1005.5 |
| 20260509093215 | 10 | 203 | 6.4 | 12.9 | 0.00 | 0.18 | 0.00 | 95 | 1005.6 |
| 20260509090214 | 10 | 175 | 8.0 | 12.9 | 0.00 | 0.18 | 0.00 | 93 | 1005.8 |
| 20260509083214 | 10 | 211 | 8.0 | 12.9 | 0.00 | 0.18 | 0.00 | 92 | 1005.6 |
| 20260509080214 | 10 | 188 | 1.6 | 8.0 | 0.00 | 0.18 | 0.00 | 91 | 1005.7 |
| 20260509073214 | 10 | 219 | 3.2 | 8.0 | 0.00 | 0.18 | 0.00 | 91 | 1005.7 |
| 20260509063214 | 11 | 211 | 6.4 | 11.3 | 0.00 | 0.18 | 0.00 | 89 | 1006.2 |
| 20260509060214 | 11 | 209 | 9.7 | 16.1 | 0.00 | 0.18 | 0.00 | 89 | 1006.5 |
| 20260509053214 | 12 | 210 | 9.7 | 19.3 | 0.00 | 0.18 | 0.00 | 88 | 1006.6 |
| 20260509050214 | 12 | 206 | 8.0 | 14.5 | 0.00 | 0.18 | 0.00 | 88 | 1006.9 |
| 20260509043214 | 12 | 224 | 9.7 | 14.5 | 0.00 | 0.18 | 0.18 | 87 | 1007.0 |
| 20260509040244 | 13 | 217 | 12.9 | 20.9 | 0.00 | 0.18 | 0.18 | 85 | 1007.4 |
| 20260509030214 | 13 | 183 | 6.4 | 16.1 | 0.00 | 0.18 | 0.18 | 81 | 1007.5 |
| 20260509023244 | 14 | 202 | 6.4 | 14.5 | 0.00 | 0.18 | 0.18 | 76 | 1007.5 |
| 20260509020214 | 15 | 202 | 9.7 | 19.3 | 0.00 | 0.18 | 0.18 | 74 | 1007.3 |
| 20260509013213 | 15 | 200 | 16.1 | 20.9 | 0.00 | 0.18 | 0.18 | 72 | 1007.0 |
| 20260509010213 | 16 | 184 | 3.2 | 20.9 | 0.00 | 0.18 | 0.18 | 71 | 1007.1 |
| 20260509003213 | 17 | 211 | 16.1 | 25.7 | 0.00 | 0.18 | 0.18 | 68 | 1006.9 |
| 20260509000213 | 18 | 211 | 17.7 | 22.5 | 0.00 | 0.18 | 0.18 | 60 | 1006.7 |
| 20260508233243 | 18 | 222 | 9.7 | 27.4 | 0.00 | 0.18 | 0.18 | 58 | 1006.7 |
| 20260508230213 | 18 | 254 | 12.9 | 25.7 | 0.00 | 0.18 | 0.18 | 56 | 1006.9 |
| 20260508220213 | 19 | 238 | 22.5 | 32.2 | 0.00 | 0.18 | 0.18 | 62 | 1007.1 |
| 20260508213213 | 18 | 212 | 11.3 | 29.0 | 0.00 | 0.18 | 0.18 | 65 | 1007.3 |
| 20260508210213 | 18 | 228 | 12.9 | 25.7 | 0.00 | 0.18 | 0.18 | 63 | 1007.4 |
| 20260508200244 | 18 | 220 | 8.0 | 20.9 | 0.00 | 0.18 | 0.18 | 63 | 1008.2 |
| 20260508193213 | 17 | 240 | 3.2 | 19.3 | 0.00 | 0.18 | 0.18 | 64 | 1008.4 |
| 20260508190214 | 17 | 293 | 0.0 | 6.4 | 0.00 | 0.20 | 0.18 | 67 | 1008.7 |
| 20260508183243 | 17 | 242 | 0.0 | 11.3 | 0.00 | 0.20 | 0.18 | 67 | 1009.0 |
| 20260508180243 | 16 | 216 | 0.0 | 14.5 | 0.00 | 0.20 | 0.18 | 67 | 1009.3 |
| 20260508173213 | 17 | 126 | 3.2 | 14.5 | 0.00 | 0.20 | 0.18 | 68 | 1009.6 |
| 20260508170213 | 16 | 162 | 6.4 | 20.9 | 0.00 | 0.20 | 0.18 | 69 | 1010.2 |
| 20260508163213 | 17 | 214 | 12.9 | 20.9 | 0.00 | 0.20 | 0.18 | 67 | 1010.7 |
| 20260508160213 | 16 | 120 | 1.6 | 20.9 | 0.00 | 0.20 | 0.18 | 70 | 1010.7 |
| 20260508153243 | 16 | 155 | 17.7 | 19.3 | 0.00 | 0.20 | 0.18 | 76 | 1011.1 |
| 20260508150213 | 15 | 209 | 6.4 | 14.5 | 0.00 | 0.20 | 0.18 | 80 | 1011.2 |
| 20260508143213 | 13 | 194 | 12.9 | 19.3 | 0.00 | 0.20 | 0.18 | 86 | 1011.4 |
| 20260508140243 | 12 | 176 | 12.9 | 16.1 | 0.00 | 0.20 | 0.18 | 96 | 1011.6 |
| 20260508133213 | 11 | 171 | 0.0 | 12.9 | 0.05 | 0.20 | 0.18 | 96 | 1011.3 |
| 20260508130243 | 10 | 180 | 6.4 | 14.5 | 0.05 | 0.20 | 0.18 | 96 | 1011.7 |